Lid_Strength_Index
11 11 11 12 11 11 11 11 13 11 11 9 8 8 7 6 6 6 6 5 5 5 5 5 5 5 5 6 6 6 7 6 7 7 6 6 7 7 8 7 7 7 8 8
15 11 12 13 11 11 10 10 10 10 11 7 7 7 7 7 7 7 6 6 5 5 5 5 5 5 5 6 6 6 6 6 6 6 7 7 8 7 8 8 8 8 8 8
15 12 12 14 12 11 10 9 9 12 9 8 8 8 8 7 6 7 7 7 6 6 6 6 5 5 5 5 6 6 6 6 7 7 7 8 7 7 9 9 9 8 7 7
15 13 18 11 8 8 10 9 8 8 8 8 8 7 6 5 6 7 7 7 7 6 5 5 5 5 5 5 5 5 6 6 6 7 8 9 7 8 9 9 8 9 9 8
15 16 13 11 9 10 10 10 8 8 8 8 7 7 7 6 6 6 6 6 5 5 5 4 5 5 5 5 5 5 5 6 6 6 6 8 10 12 11 10 10 10 9 9
14 16 17 11 9 7 8 13 8 7 8 8 8 11 9 6 6 6 5 5 5 5 5 5 5 5 5 5 6 6 6 5 5 5 5 6 7 8 8 8 10 10 10 10
14 15 13 8 8 7 14 12 6 7 7 8 9 7 6 6 6 6 5 5 5 5 5 5 5 5 6 5 6 5 5 4 4 4 4 5 5 6 7 8 8 9 10 9
13 15 17 7 8 11 8 6 6 7 7 7 7 6 6 7 7 6 6 6 5 5 5 4 4 5 6 6 5 5 4 4 4 4 4 5 5 6 7 8 8 9 9 9
12 12 7 6 7 6 5 6 7 7 7 6 6 7 7 7 7 6 6 6 5 5 5 5 4 5 6 6 5 5 5 4 5 4 4 5 6 7 7 7 8 9 9 9
10 8 7 7 6 5 5 6 6 6 6 6 6 7 7 7 7 7 6 6 6 6 6 6 5 5 5 5 5 5 5 5 5 5 6 6 6 7 8 8 8 9 9 9
9 8 7 6 6 6 6 6 6 6 6 6 6 7 7 7 7 7 6 6 6 6 6 6 6 6 5 5 5 5 6 5 5 6 7 8 8 8 8 7 8 9 9 9
10 7 7 7 5 5 6 7 6 6 6 6 7 7 7 7 7 7 7 7 7 7 7 7 6 6 6 5 5 6 6 6 6 7 8 8 8 8 7 8 8 8 8 9
7 6 5 5 5 5 6 6 6 6 6 6 7 7 7 7 7 8 7 7 7 7 7 7 7 6 6 5 5 6 7 6 6 7 7 8 9 9 9 8 8 8 8 9
5 5 7 6 7 5 5 5 5 5 5 6 6 6 6 7 7 6 7 6 6 6 6 6 7 7 5 5 6 6 6 7 6 7 7 8 8 9 9 9 10 9 8 9
6 6 6 5 6 6 6 6 6 6 6 7 6 6 6 7 6 6 6 6 6 6 6 6 6 6 5 5 6 7 6 6 6 7 7 7 8 9 9 9 9 10 9 10
7 6 6 7 7 6 6 6 6 6 7 7 7 6 6 6 6 6 5 6 7 7 7 7 6 5 5 5 6 6 5 6 6 7 7 7 8 9 9 9 9 10 10 10
7 8 7 7 7 7 7 6 6 7 7 7 6 6 6 6 6 7 6 6 6 6 6 6 6 5 6 5 5 6 5 6 6 7 7 7 8 9 9 9 10 10 10 10
5 6 6 6 7 7 6 6 6 6 6 6 6 7 9 8 8 8 8 8 8 8 7 7 7 7 7 6 5 5 5 6 6 7 7 8 8 9 9 10 10 10 10 10
6 6 6 6 6 6 6 6 6 7 8 8 8 9 9 10 10 10 9 9 9 9 8 7 7 8 6 6 6 5 6 6 7 7 7 8 8 9 9 10 10 10 11 10
6 5 5 5 5 5 6 8 8 9 8 8 11 11 10 10 10 10 9 9 8 7 6 5 6 6 6 6 7 6 6 6 7 7 8 8 9 9 9 10 10 11 10 10
6 6 6 7 10 10 11 11 11 12 11 11 11 11 11 10 9 10 9 8 7 6 6 7 6 5 6 6 6 6 6 6 7 8 8 9 9 9 10 10 10 11 11 11
6 9 10 11 11 12 11 11 12 12 12 12 12 12 12 10 9 8 8 7 6 9 7 7 7 6 6 7 6 6 6 6 7 8 8 9 9 10 10 10 11 11 11 11
8 9 10 11 11 11 10 11 12 12 12 12 12 10 10 9 8 8 9 7 6 8 7 7 7 7 7 6 6 6 6 7 7 8 8 9 9 10 10 11 11 11 11 11
7 8 9 9 9 10 12 12 11 11 12 11 10 11 9 8 7 7 6 8 9 9 7 7 7 8 7 6 6 6 6 7 7 8 8 9 9 10 10 11 11 11 11 11
8 9 9 9 9 9 9 10 10 9 9 8 8 7 7 7 8 7 7 7 8 8 7 7 8 7 7 6 6 6 6 6 7 8 8 9 9 10 10 10 11 11 11 10
8 8 8 8 8 9 9 9 9 8 9 8 8 7 7 7 7 7 7 8 8 8 7 7 7 7 7 6 6 6 6 6 7 8 8 9 9 10 10 10 11 11 11 10
8 9 9 9 9 9 8 9 9 9 9 9 9 8 8 8 8 8 9 8 8 8 8 8 8 7 7 6 6 6 5 6 7 8 8 9 9 10 10 10 10 10 10 10